• In Uzbekistan
  • List of Countries
  • For 7 days
  • Water Temperature
  • Satellite Maps
  • Weather Map
  • Weather Widgets
  • user-avatar
    Login

    Hourly Weather Ondjiwa

    Today, 30 April, Sunday

    Time Temperature Precipitation Wind Pressure Humidity
    00:00 +21°C° 0 mm 3 mps 669 mmHg 52%
    01:00 +20°C° 0 mm 3 mps 670 mmHg 55%
    02:00 +19°C° 0 mm 3 mps 670 mmHg 57%
    03:00 +19°C° 0 mm 3 mps 669 mmHg 59%
    04:00 +19°C° 0 mm 3 mps 669 mmHg 61%
    05:00 +18°C° 0 mm 3 mps 670 mmHg 61%
    06:00 +18°C° 0 mm 4 mps 670 mmHg 62%
    07:00 +19°C° 0 mm 4 mps 671 mmHg 60%
    08:00 +21°C° 0 mm 5 mps 671 mmHg 52%
    09:00 +25°C° 0 mm 5 mps 672 mmHg 44%
    10:00 +27°C° 0 mm 5 mps 672 mmHg 36%
    11:00 +28°C° 0 mm 5 mps 672 mmHg 32%
    12:00 +30°C° 0 mm 4 mps 671 mmHg 29%
    13:00 +32°C° 0 mm 4 mps 671 mmHg 25%
    14:00 +32°C° 0 mm 4 mps 670 mmHg 24%
    15:00 +32°C° 0 mm 4 mps 670 mmHg 24%
    16:00 +31°C° 0 mm 3 mps 669 mmHg 23%
    17:00 +28°C° 0 mm 3 mps 669 mmHg 27%
    18:00 +26°C° 0 mm 3 mps 669 mmHg 31%
    19:00 +24°C° 0 mm 3 mps 669 mmHg 35%
    20:00 +22°C° 0 mm 3 mps 669 mmHg 36%
    21:00 +21°C° 0 mm 3 mps 669 mmHg 37%
    22:00 +20°C° 0 mm 3 mps 669 mmHg 38%
    23:00 +20°C° 0 mm 3 mps 669 mmHg 40%

    Tomorrow, 1 May, Monday

    Time Temperature Precipitation Wind Pressure Humidity
    00:00 +19°C° 0 mm 3 mps 669 mmHg 41%
    01:00 +18°C° 0 mm 3 mps 669 mmHg 43%
    02:00 +18°C° 0 mm 3 mps 669 mmHg 45%
    03:00 +17°C° 0 mm 3 mps 669 mmHg 47%
    04:00 +17°C° 0 mm 3 mps 669 mmHg 49%
    05:00 +17°C° 0 mm 3 mps 669 mmHg 51%
    06:00 +17°C° 0 mm 3 mps 669 mmHg 53%
    07:00 +17°C° 0 mm 3 mps 670 mmHg 55%
    08:00 +20°C° 0 mm 4 mps 670 mmHg 47%
    09:00 +23°C° 0 mm 5 mps 671 mmHg 40%
    10:00 +27°C° 0 mm 5 mps 672 mmHg 33%
    11:00 +28°C° 0 mm 5 mps 671 mmHg 29%
    12:00 +29°C° 0 mm 4 mps 671 mmHg 26%
    13:00 +30°C° 0 mm 4 mps 670 mmHg 22%
    14:00 +30°C° 0 mm 4 mps 670 mmHg 22%
    15:00 +30°C° 0 mm 4 mps 669 mmHg 22%
    16:00 +30°C° 0 mm 4 mps 669 mmHg 22%
    17:00 +27°C° 0 mm 3 mps 669 mmHg 26%
    18:00 +25°C° 0 mm 3 mps 669 mmHg 31%
    19:00 +22°C° 0 mm 3 mps 668 mmHg 36%
    20:00 +21°C° 0 mm 3 mps 669 mmHg 38%
    21:00 +20°C° 0 mm 3 mps 669 mmHg 40%
    22:00 +20°C° 0 mm 3 mps 669 mmHg 43%
    23:00 +19°C° 0 mm 3 mps 669 mmHg 45%

    Day after tomorrow, 2 May, Tuesday

    Time Temperature Precipitation Wind Pressure Humidity
    00:00 +18°C° 0 mm 3 mps 669 mmHg 47%
    01:00 +18°C° 0 mm 3 mps 669 mmHg 50%
    02:00 +17°C° 0 mm 3 mps 669 mmHg 53%
    03:00 +17°C° 0 mm 3 mps 669 mmHg 57%
    04:00 +16°C° 0 mm 3 mps 669 mmHg 60%
    05:00 +16°C° 0 mm 3 mps 669 mmHg 61%
    06:00 +16°C° 0 mm 3 mps 669 mmHg 61%
    07:00 +16°C° 0 mm 3 mps 670 mmHg 62%
    08:00 +19°C° 0 mm 4 mps 670 mmHg 52%
    09:00 +22°C° 0 mm 5 mps 671 mmHg 42%
    10:00 +27°C° 0 mm 6 mps 672 mmHg 32%
    11:00 +28°C° 0 mm 5 mps 671 mmHg 30%
    12:00 +29°C° 0 mm 5 mps 670 mmHg 28%
    13:00 +30°C° 0 mm 5 mps 670 mmHg 26%
    14:00 +30°C° 0 mm 5 mps 669 mmHg 26%
    15:00 +29°C° 0 mm 4 mps 669 mmHg 26%
    16:00 +29°C° 0 mm 4 mps 668 mmHg 26%
    17:00 +27°C° 0 mm 4 mps 668 mmHg 32%
    18:00 +25°C° 0 mm 3 mps 668 mmHg 37%
    19:00 +21°C° 0 mm 3 mps 668 mmHg 42%
    20:00 +21°C° 0 mm 3 mps 669 mmHg 44%
    21:00 +20°C° 0 mm 3 mps 669 mmHg 47%
    22:00 +20°C° 0 mm 3 mps 669 mmHg 50%
    23:00 +19°C° 0 mm 3 mps 669 mmHg 52%

    3 May, Wednesday

    Time Temperature Precipitation Wind Pressure Humidity
    00:00 +19°C° 0 mm 3 mps 669 mmHg 54%
    01:00 +18°C° 0 mm 3 mps 669 mmHg 56%
    02:00 +18°C° 0 mm 3 mps 668 mmHg 58%
    03:00 +17°C° 0 mm 3 mps 668 mmHg 60%
    04:00 +17°C° 0 mm 3 mps 668 mmHg 62%
    05:00 +17°C° 0 mm 3 mps 668 mmHg 62%
    06:00 +17°C° 0 mm 3 mps 669 mmHg 63%
    07:00 +17°C° 0 mm 3 mps 669 mmHg 63%
    08:00 +20°C° 0 mm 4 mps 670 mmHg 53%
    09:00 +23°C° 0 mm 5 mps 671 mmHg 42%
    10:00 +27°C° 0 mm 6 mps 671 mmHg 32%
    11:00 +29°C° 0 mm 5 mps 671 mmHg 29%
    12:00 +30°C° 0 mm 4 mps 670 mmHg 26%
    13:00 +31°C° 0 mm 3 mps 669 mmHg 23%
    14:00 +31°C° 0 mm 3 mps 669 mmHg 23%
    15:00 +31°C° 0 mm 3 mps 669 mmHg 23%
    16:00 +30°C° 0 mm 3 mps 668 mmHg 23%
    17:00 +28°C° 0 mm 3 mps 668 mmHg 29%
    18:00 +26°C° 0 mm 3 mps 668 mmHg 35%
    19:00 +22°C° 0 mm 3 mps 668 mmHg 40%
    20:00 +22°C° 0 mm 3 mps 668 mmHg 43%
    21:00 +21°C° 0 mm 4 mps 669 mmHg 47%
    22:00 +21°C° 0 mm 4 mps 669 mmHg 50%
    23:00 +20°C° 0 mm 4 mps 669 mmHg 53%

    4 May, Thursday

    Time Temperature Precipitation Wind Pressure Humidity
    00:00 +20°C° 0 mm 3 mps 668 mmHg 56%
    01:00 +19°C° 0 mm 3 mps 668 mmHg 59%
    02:00 +18°C° 0 mm 3 mps 668 mmHg 61%
    03:00 +18°C° 0 mm 3 mps 668 mmHg 63%
    04:00 +17°C° 0 mm 3 mps 668 mmHg 65%
    05:00 +17°C° 0 mm 3 mps 668 mmHg 65%
    06:00 +17°C° 0 mm 3 mps 668 mmHg 66%
    07:00 +18°C° 0 mm 2 mps 669 mmHg 66%
    08:00 +21°C° 0 mm 4 mps 670 mmHg 56%
    09:00 +25°C° 0 mm 5 mps 670 mmHg 46%
    10:00 +28°C° 0 mm 6 mps 671 mmHg 36%
    11:00 +29°C° 0 mm 5 mps 670 mmHg 32%
    12:00 +30°C° 0 mm 4 mps 669 mmHg 29%
    13:00 +32°C° 0 mm 4 mps 669 mmHg 25%
    14:00 +31°C° 0 mm 3 mps 668 mmHg 25%
    15:00 +31°C° 0 mm 3 mps 668 mmHg 24%
    16:00 +31°C° 0 mm 3 mps 668 mmHg 24%
    17:00 +29°C° 0 mm 3 mps 667 mmHg 29%
    18:00 +26°C° 0 mm 3 mps 667 mmHg 33%
    19:00 +24°C° 0 mm 3 mps 667 mmHg 38%
    20:00 +22°C° 0 mm 3 mps 668 mmHg 40%
    21:00 +22°C° 0 mm 3 mps 668 mmHg 42%
    22:00 +21°C° 0 mm 3 mps 668 mmHg 44%
    23:00 +20°C° 0 mm 3 mps 668 mmHg 46%

    5 May, Friday

    Time Temperature Precipitation Wind Pressure Humidity
    00:00 +20°C° 0 mm 3 mps 668 mmHg 48%
    01:00 +19°C° 0 mm 3 mps 667 mmHg 50%
    02:00 +19°C° 0 mm 3 mps 667 mmHg 53%
    03:00 +18°C° 0 mm 3 mps 667 mmHg 55%
    04:00 +18°C° 0 mm 3 mps 667 mmHg 58%
    05:00 +18°C° 0 mm 3 mps 668 mmHg 59%
    06:00 +18°C° 0 mm 3 mps 668 mmHg 60%
    07:00 +18°C° 0 mm 3 mps 669 mmHg 61%
    08:00 +21°C° 0 mm 4 mps 669 mmHg 52%
    09:00 +25°C° 0 mm 5 mps 670 mmHg 43%
    10:00 +28°C° 0 mm 5 mps 671 mmHg 33%
    11:00 +29°C° 0 mm 5 mps 670 mmHg 30%
    12:00 +30°C° 0 mm 4 mps 670 mmHg 26%
    13:00 +33°C° 0 mm 4 mps 669 mmHg 23%
    14:00 +32°C° 0 mm 4 mps 669 mmHg 23%
    15:00 +31°C° 0 mm 3 mps 668 mmHg 23%
    16:00 +31°C° 0 mm 3 mps 668 mmHg 22%
    17:00 +29°C° 0 mm 3 mps 668 mmHg 27%
    18:00 +26°C° 0 mm 3 mps 668 mmHg 32%
    19:00 +24°C° 0 mm 2 mps 668 mmHg 37%
    20:00 +23°C° 0 mm 2 mps 668 mmHg 39%
    21:00 +21°C° 0 mm 2 mps 668 mmHg 41%
    22:00 +21°C° 0 mm 2 mps 668 mmHg 42%
    23:00 +20°C° 0 mm 3 mps 668 mmHg 45%
    Show more